STARLINK-2491, 48148

Orbit data source: Space-Track

STARLINK-2491, 48148 is a payload satellite owned by SpaceX/Seattle (US) in LEO that was launched on Wed, 07 Apr 2021 UTC via an FALCON 9 launch vehicle from the Air Force Eastern Test Range (AFETR). Payload-class satellites include a variety of spacecraft equipped with specific instruments for various scientific and technological missions. These include communications satellites like Starlink; space stations such as the ISS; scientific satellites like the Hubble; Earth observation satellites from companies like Planet Labs, Umbra, and HawkEye 360; GPS; miniature CubeSats for education and research; and military/defense satellites.

Loading next visibility...
Identifier
48148, 2021-027BJ
Orbit
LEO
Country
Flag of USUS
Related business
Manufacturer
SpaceX/Seattle
Mission
Operational Commercial Communications
Bus & Motor
STARLINK, Unknown motor
Mass
260 kg wet, ~248 kg dry
Launch date (UTC)
2021-04-07 (5 years ago)
Launch vehicle
FALCON 9
Launch site
Air Force Eastern Test Range (AFETR)
Object type
Payload
Rocket body
Debris
Shape & HBR
Box + 1 Pan, 10.1 m
Radar Cross Section
13.562 m², Large (>1 m²)

Expand to show TLE details & history
Last TLE update: 2 days ago

TLE from 2 days ago
0 STARLINK-2491
1 48148U 21027BJ  26170.95376785  .00003970  00000-0  13954-3 0  9997
2 48148  53.1590  49.9640 0001194 109.6893 250.4237 15.31718001288168
Epoch: 2026-06-19T22:53Z
TLE epoch observation values (Epoch: 2026-06-19T22:53:25.542Z)
Latitude
-0.00003°
Longitude
158.43221°
Altitude
471.861 km
Speed
7.631 km/s
True Right ascension
03h 19m 51s
True Declination
0° 00' 00"
Sunlit
Object was in daylight at epoch
Visualization orbit readout
Latitude
Unknown
Longitude
Unknown
Altitude
Unknown
Speed
Unknown
Apparent Right ascension
Unknown
Apparent Declination
Unknown
Sunlit
N/A
Visualization observer readout
Local Sidereal Time
21:28:11
Azimuth
Unknown
Elevation
Unknown
Doppler factor
Unknown
Orbital elements
Apogee altitude
471.761 km
Perigee altitude
470.125 km
Semi-major axis
6,849.08 km
Eccentricity
0.00012
Inclination
53.159°
RAAN
49.964°
Arg. of periapsis
109.6893°
True anomaly
250.41081°
Mean anomaly
250.4237°
Eccentric anomaly
250.41725°
Mean motion
3.82908 °/min
Orbital period
94.02 mins
BSTAR
0.00013954
Loading maneuver chart data...
Computing Atmospheric mass density...
Loading historical data...
Loading historical data...
Loading historical data...
Loading historical data...
Loading historical data...
Loading historical data...
Loading historical data...

Documentation

Showing up to 5 results
|